Knoxville, IA

1:45 AM CDT on May 27, 2017 (GMT -0500)
Knoxville Municipal

Weather History for KOXV - January, 2013

Change the Weather History Date:

Wednesday, January 16, 2013

  Actual Average Record
Temperature  
Mean Temperature 32 °F -  
Max Temperature 46 °F 32 °F 61 °F (1990)
Min Temperature 19 °F 11 °F -20 °F (1977)
Degree Days  
Heating Degree Days 32    
Moisture  
Dew Point 21 °F    
Average Humidity 61    
Maximum Humidity 81    
Minimum Humidity 49    
Precipitation  
Precipitation 0.00 in - - ()
Sea Level Pressure  
Sea Level Pressure 29.98 in    
Wind  
Wind Speed 12 mph (WSW)    
Max Wind Speed 20 mph    
Max Gust Speed 25 mph    
Visibility 10 miles    
Events      
Averages and records for this station are not official NWS values.
T = Trace of Precipitation, MM = Missing Value Source: NWS Daily Summary

Daily Weather History Graph

Daily Weather History Graph

Search for Another Location

Airport or City:

Trip Planner

Search our weather history database for the weather conditions in past years. The results will help you decide how hot, cold, wet, or windy it might be!

Date:

Astronomy

Jan. 16, 2013 Rise Set
Actual Time 7:35 AM CST 5:09 PM CST
Civil Twilight 7:05 AM CST 5:40 PM CST
Nautical Twilight 6:31 AM CST 6:13 PM CST
Astronomical Twilight 5:58 AM CST 6:47 PM CST
Moon 10:08 AM CST (1/16) 11:06 PM CST (1/16)
Length of Visible Light 10h 34m
Length of Day
9h 34m
Waxing Crescent, 28% of the Moon is Illuminated
Jan 16
Waxing Crescent
Jan 18
First Quarter
Jan 26
Full
Feb 3
Last Quarter
Feb 10
New

Hourly Weather History & Observations

Time (CST) Temp. Windchill Dew Point Humidity Pressure Visibility Wind Dir Wind Speed Gust Speed Precip Events Conditions
12:15 AM 19.4 °F 9.5 °F 8.6 °F 63% 30.07 in 10.0 mi South 8.1 mph - N/A   Clear
12:35 AM 19.4 °F 7.9 °F 8.6 °F 63% 30.06 in 10.0 mi SSW 10.4 mph - N/A   Clear
12:55 AM 21.2 °F 10.1 °F 8.6 °F 58% 30.06 in 10.0 mi SSW 10.4 mph - N/A   Clear
1:15 AM 21.2 °F 9.5 °F 8.6 °F 58% 30.05 in 10.0 mi SSW 11.5 mph 17.3 mph N/A   Clear
1:35 AM 21.2 °F 9.5 °F 8.6 °F 58% 30.04 in 10.0 mi SSW 11.5 mph - N/A   Clear
1:55 AM 21.2 °F 8.9 °F 8.6 °F 58% 30.03 in 10.0 mi SSW 12.7 mph - N/A   Clear
2:15 AM 21.2 °F 10.1 °F 8.6 °F 58% 30.04 in 10.0 mi SSW 10.4 mph - N/A   Clear
2:35 AM 21.2 °F 10.1 °F 8.6 °F 58% 30.04 in 10.0 mi SSW 10.4 mph - N/A   Clear
2:55 AM 19.4 °F 7.9 °F 8.6 °F 63% 30.02 in 10.0 mi SSW 10.4 mph - N/A   Clear
3:15 AM 19.4 °F 7.9 °F 8.6 °F 63% 30.01 in 10.0 mi SSW 10.4 mph - N/A   Clear
3:35 AM 21.2 °F 10.1 °F 8.6 °F 58% 29.99 in 10.0 mi SSW 10.4 mph - N/A   Clear
3:55 AM 21.2 °F 10.1 °F 8.6 °F 58% 29.99 in 10.0 mi SSW 10.4 mph - N/A   Clear
4:15 AM 21.2 °F 10.9 °F 8.6 °F 58% 29.98 in 10.0 mi SSW 9.2 mph - N/A   Clear
4:35 AM 21.2 °F 10.1 °F 10.4 °F 63% 29.97 in 10.0 mi SSW 10.4 mph - N/A   Clear
4:55 AM 21.2 °F 9.5 °F 10.4 °F 63% 29.96 in 10.0 mi SSW 11.5 mph 17.3 mph N/A   Clear
5:15 AM 21.2 °F 8.3 °F 10.4 °F 63% 29.95 in 10.0 mi SSW 13.8 mph - N/A   Clear
5:35 AM 21.2 °F 8.3 °F 10.4 °F 63% 29.93 in 10.0 mi SSW 13.8 mph 21.9 mph N/A   Clear
5:55 AM 21.2 °F 7.8 °F 10.4 °F 63% 29.92 in 10.0 mi SSW 15.0 mph 21.9 mph N/A   Clear
6:35 AM 21.2 °F 7.8 °F 10.4 °F 63% 29.92 in 10.0 mi SW 15.0 mph - N/A   Clear
6:55 AM 21.2 °F 7.8 °F 12.2 °F 68% 29.92 in 10.0 mi SW 15.0 mph - N/A   Scattered Clouds
7:15 AM 23.0 °F 11.1 °F 12.2 °F 63% 29.92 in 10.0 mi SW 12.7 mph - N/A   Mostly Cloudy
7:35 AM 24.8 °F 11.5 °F 12.2 °F 59% 29.92 in 10.0 mi SW 17.3 mph 21.9 mph N/A   Overcast
7:55 AM 26.6 °F 14.3 °F 12.2 °F 55% 29.91 in 10.0 mi SW 16.1 mph 24.2 mph N/A   Overcast
8:15 AM 26.6 °F 14.3 °F 14.0 °F 59% 29.92 in 10.0 mi SW 16.1 mph - N/A   Overcast
8:35 AM 26.6 °F 14.7 °F 14.0 °F 59% 29.92 in 10.0 mi SW 15.0 mph 19.6 mph N/A   Overcast
8:55 AM 28.4 °F 18.0 °F 14.0 °F 55% 29.92 in 10.0 mi SW 12.7 mph - N/A   Overcast
9:15 AM 28.4 °F 17.5 °F 15.8 °F 59% 29.92 in 10.0 mi WSW 13.8 mph 18.4 mph N/A   Overcast
9:35 AM 30.2 °F 20.8 °F 15.8 °F 55% 29.92 in 10.0 mi WSW 11.5 mph - N/A   Overcast
9:55 AM 30.2 °F 18.5 °F 15.8 °F 55% 29.92 in 10.0 mi WSW 17.3 mph 20.7 mph N/A   Overcast
10:15 AM 33.8 °F 23.5 °F 17.6 °F 52% 29.92 in 10.0 mi WSW 16.1 mph - N/A   Mostly Cloudy
10:35 AM 33.8 °F 24.8 °F 17.6 °F 52% 29.91 in 10.0 mi WSW 12.7 mph - N/A   Scattered Clouds
10:55 AM 35.6 °F 26.2 °F 19.4 °F 52% 29.91 in 10.0 mi West 15.0 mph - N/A   Scattered Clouds
11:15 AM 37.4 °F 28.2 °F 21.2 °F 52% 29.91 in 10.0 mi WSW 16.1 mph - N/A   Clear
11:35 AM 39.2 °F 30.5 °F 21.2 °F 49% 29.91 in 10.0 mi WSW 16.1 mph - N/A   Clear
11:55 AM 39.2 °F 30.5 °F 24.8 °F 56% 29.91 in 10.0 mi West 16.1 mph 20.7 mph N/A   Clear
12:15 PM 41.0 °F 33.1 °F 24.8 °F 53% 29.90 in 10.0 mi West 15.0 mph - N/A   Scattered Clouds
12:35 PM 41.0 °F 32.5 °F 26.6 °F 57% 29.89 in 10.0 mi West 17.3 mph - N/A   Mostly Cloudy
12:55 PM 42.8 °F 35.1 °F 26.6 °F 53% 29.89 in 10.0 mi WSW 16.1 mph - N/A   Scattered Clouds
1:15 PM 44.6 °F 37.2 °F 28.4 °F 53% 29.89 in 10.0 mi WSW 17.3 mph - N/A   Clear
1:35 PM 44.6 °F 37.4 °F 28.4 °F 53% 29.89 in 10.0 mi West 16.1 mph - N/A   Clear
2:15 PM 46.4 °F 40.1 °F 28.4 °F 50% 29.90 in 10.0 mi West 15.0 mph 19.6 mph N/A   Clear
2:35 PM 46.4 °F 40.1 °F 28.4 °F 50% 29.90 in 10.0 mi West 15.0 mph 20.7 mph N/A   Clear
2:55 PM 46.4 °F 40.1 °F 30.2 °F 53% 29.90 in 10.0 mi West 15.0 mph - N/A   Clear
3:15 PM 46.4 °F 40.4 °F 30.2 °F 53% 29.91 in 10.0 mi West 13.8 mph - N/A   Clear
3:35 PM 46.4 °F 40.1 °F 30.2 °F 53% 29.92 in 10.0 mi West 15.0 mph 18.4 mph N/A   Clear
3:55 PM 46.4 °F 41.1 °F 30.2 °F 53% 29.93 in 10.0 mi West 11.5 mph - N/A   Clear
4:15 PM 46.4 °F 40.4 °F 30.2 °F 53% 29.93 in 10.0 mi WSW 13.8 mph - N/A   Clear
4:35 PM 44.6 °F 39.7 °F 30.2 °F 57% 29.95 in 10.0 mi WSW 9.2 mph - N/A   Clear
4:55 PM 42.8 °F 40.1 °F 30.2 °F 61% 29.96 in 10.0 mi WSW 4.6 mph - N/A   Scattered Clouds
5:15 PM 42.8 °F 39.3 °F 30.2 °F 61% 29.96 in 10.0 mi WSW 5.8 mph - N/A   Overcast
5:55 PM 41.0 °F 37.1 °F 30.2 °F 65% 29.98 in 10.0 mi West 5.8 mph - N/A   Overcast
6:15 PM 41.0 °F 37.1 °F 30.2 °F 65% 29.99 in 10.0 mi SW 5.8 mph - N/A   Overcast
6:35 PM 39.2 °F 34.2 °F 28.4 °F 65% 29.99 in 10.0 mi SW 6.9 mph - N/A   Mostly Cloudy
6:55 PM 37.4 °F 32.1 °F 28.4 °F 70% 30.00 in 10.0 mi WSW 6.9 mph - N/A   Mostly Cloudy
7:15 PM 37.4 °F 32.8 °F 28.4 °F 70% 30.02 in 10.0 mi West 5.8 mph - N/A   Mostly Cloudy
7:35 PM 39.2 °F 35.9 °F 28.4 °F 65% 30.03 in 10.0 mi West 4.6 mph - N/A   Overcast
7:55 PM 39.2 °F 34.2 °F 30.2 °F 70% 30.04 in 10.0 mi West 6.9 mph - N/A   Overcast
8:15 PM 37.4 °F 31.4 °F 28.4 °F 70% 30.04 in 10.0 mi WNW 8.1 mph - N/A   Mostly Cloudy
8:35 PM 37.4 °F 30.8 °F 30.2 °F 75% 30.06 in 10.0 mi NNW 9.2 mph - N/A   Scattered Clouds
8:55 PM 39.2 °F 32.0 °F 30.2 °F 70% 30.07 in 10.0 mi NNW 11.5 mph - N/A   Scattered Clouds
9:15 PM 39.2 °F 31.2 °F 30.2 °F 70% 30.08 in 10.0 mi NNW 13.8 mph - N/A   Mostly Cloudy
9:35 PM 39.2 °F 30.2 °F 30.2 °F 70% 30.09 in 10.0 mi North 17.3 mph 21.9 mph N/A   Mostly Cloudy
9:55 PM 37.4 °F 28.9 °F 30.2 °F 75% 30.10 in 10.0 mi NNW 13.8 mph - N/A   Scattered Clouds
10:15 PM 35.6 °F 26.6 °F 30.2 °F 81% 30.11 in 10.0 mi NNW 13.8 mph - N/A   Clear
10:35 PM 33.8 °F 25.8 °F 28.4 °F 81% 30.12 in 10.0 mi NNW 10.4 mph - N/A   Clear
10:55 PM 33.8 °F 22.5 °F 28.4 °F 81% 30.13 in 10.0 mi North 19.6 mph 25.3 mph N/A   Mostly Cloudy
11:15 PM 33.8 °F 23.9 °F 26.6 °F 75% 30.15 in 10.0 mi NNW 15.0 mph 24.2 mph N/A   Mostly Cloudy
11:35 PM 32.0 °F 21.6 °F 26.6 °F 80% 30.16 in 10.0 mi NNW 15.0 mph 20.7 mph N/A   Scattered Clouds
11:55 PM 30.2 °F 20.2 °F 24.8 °F 80% 30.18 in 10.0 mi NNW 12.7 mph - N/A   Clear